{"data":{"norad_id":64014,"intl_designator":"2025-101W","name":"STARLINK-34192","alt_names":[],"object_type":"PAYLOAD","status":"ACTIVE","operator":null,"country":"US","launch_date":"2025-05-14","launch_site_code":"AFETR","launch_vehicle":null,"mission":null,"orbit_class":"UNKNOWN","rcs_meters":null,"size_class":null,"mass_kg":null,"dimensions":null,"purposes":["comms"],"wikipedia_slug":null,"has_3d_model":false,"image_url":null,"decayed_at":null,"tle_current":{"epoch":"2026-05-24T21:10:51.430944Z","epoch_age_seconds":88268,"freshness":"FRESH","line1":"1 64014U 25101W   26144.88253971  .00019073  00000+0  70054-3 0  9992","line2":"2 64014  42.9979 288.0339 0001084 272.6117  87.4611 15.27594168 58704","mean_motion":15.27594168,"eccentricity":0.0001084,"inclination_deg":42.9979,"raan_deg":288.0339,"arg_perigee_deg":272.6117,"mean_anomaly_deg":87.4611,"bstar":0.00070054,"rev_number":5870,"period_min":94.265874416457,"perigee_km":482.26292430456,"apogee_km":483.75042025271,"semimajor_km":6861.1436722786,"source":"CELESTRAK","updated_at":"2026-05-25T13:38:20.222036Z"}}}